Location: Arcones
(41.1182°N, 3.7238°W)
Time: 05:21:46
(UTC+00:00)

IRAS Rocket - Pass Details

Date: 19 March 2026
Orbit: 845 x 876 km, 100.1° (Epoch: 15 April)

Event Time Altitude Azimuth Distance (km) Brightness Sun altitude
Rises 21:18:01 0° 212° (SSW) 3,451 7.4 -31.7°
Reaches altitude 10° 21:21:34 10° 235° (SW) 2,515 6.9 -32.2°
Maximum altitude 21:24:34 15° 268° (W) 2,195 6.9 -32.7°
Drops below altitude 10° 21:27:35 10° 301° (WNW) 2,515 7.5 -33.2°
Sets 21:31:09 0° 325° (NW) 3,451 8.3 -33.7°
